ES'HAIL 2

Last updated on Mon Nov 03 2025 00:02:59 GMT+0000 (Coordinated Universal Time)

1 43700U 18090A 25306.25780050 .00000000 00000+0 00000+0 0 9993 2 43700 0.0206 253.7219 0002446 7.7991 258.8395 1.00269675 25409
UTC large
Height (km)
Speed (km/s)
/
Latitude / Longitude
Inclination (degrees)
Orbital Period (minutes)
Azimuth
Elevation
Range (km)
Doppler Factor

Next 0 passes for location: London (51.5072 / 0.1276)

Sorry there are no passes over London.